This demonstration page uses our WeatherBlox Daily Observations layout. Learn more.

Left ArrowRight Arrow

Hourly Observations for March 21, 2021

Temp ( °F °C ) Dew Point ( °F °C ) Humidity (%) Winds ( mph kmh ) Pressure ( in mb ) Visibility ( mi km ) Precip ( " mm )
12:53 am 00:53 Clear 35 1.7 20 -6.7 54 54 SW 14 22 29.91 1013 10 16 N/A
1:53 am 01:53 Clear 35 1.7 18 -7.8 50 50 SW 18 30 29.91 1013 10 16 N/A
2:53 am 02:53 Clear 35 1.7 18 -7.8 50 50 SW 18 30 29.92 1013 10 16 N/A
3:53 am 03:53 Clear 34 1.1 18 -7.8 52 52 SW 18 30 29.93 1014 10 16 N/A
4:53 am 04:53 Clear 31 -0.6 18 -7.8 59 59 SW 17 28 29.96 1015 10 16 N/A
5:53 am 05:53 Clear 30 -1.1 18 -7.8 61 61 WSW 14 22 30.01 1016 10 16 N/A
6:53 am 06:53 Mostly Cloudy 27 -2.8 19 -7.2 72 72 W 8 13 30.05 1018 10 16 N/A
7:53 am 07:53 Mostly Cloudy 28 -2.2 21 -6.1 75 75 NW 7 11 30.08 1019 10 16 N/A
8:07 am 08:07 Partly Cloudy 28 -2.2 21 -6.1 75 75 NW 7 11 30.15 1021 10 16 N/A
8:53 am 08:53 Sunny 31 -0.6 23 -5 72 72 NW 8 13 30.10 1019 10 16 N/A
9:53 am 09:53 Sunny 35 1.7 24 -4.4 64 64 NW 7 11 30.12 1020 10 16 N/A
10:53 am 10:53 Sunny 38 3.3 21 -6.1 51 51 NNW 3 6 30.10 1019 10 16 N/A
11:53 am 11:53 Sunny 40 4.4 21 -6.1 47 47 VRB 5 7 30.10 1019 10 16 N/A
12:53 pm 12:53 Sunny 42 5.6 19 -7.2 40 40 N N/A 30.08 1019 10 16 N/A
1:53 pm 13:53 Sunny 46 7.8 20 -6.7 35 35 VRB 6 9 30.04 1017 10 16 N/A
2:53 pm 14:53 Sunny 49 9.4 23 -5 36 36 W 13 20 30.01 1016 10 16 N/A
3:53 pm 15:53 Cloudy 49 9.4 23 -5 36 36 WSW 15 24 29.99 1016 10 16 N/A
4:53 pm 16:53 Cloudy 48 8.9 21 -6.1 34 34 W 10 17 29.97 1015 10 16 N/A
5:53 pm 17:53 Cloudy 47 8.3 23 -5 39 39 W 15 24 29.97 1015 10 16 N/A
6:53 pm 18:53 Cloudy 46 7.8 22 -5.6 38 38 WSW 13 20 29.96 1015 10 16 N/A
7:53 pm 19:53 Cloudy 45 7.2 22 -5.6 40 40 SW 6 9 29.94 1014 10 16 N/A
8:53 pm 20:53 Cloudy 44 6.7 25 -3.9 47 47 S 13 20 29.93 1014 10 16 N/A
9:53 pm 21:53 Cloudy 44 6.7 24 -4.4 45 45 WSW 12 19 29.92 1013 10 16 N/A
10:53 pm 22:53 Cloudy 39 3.9 23 -5 53 53 S 8 13 29.92 1013 10 16 N/A
11:53 pm 23:53 Mostly Cloudy 39 3.9 20 -6.7 46 46 SW 10 17 29.90 1013 10 16 N/A

Powered by AerisWeather